Location: Brivio
(45.7333°N, 9.4500°E)
Time: 23:47:46
(UTC+00:00)

N. Korean satellite - Pass Details

Date: 15 December 2019
Orbit: 454 x 507 km, 97.2° (Epoch: 21 January)

Event Time Altitude Azimuth Distance (km) Brightness Sun altitude
Rises 05:59:47 0° 1° (N) 2,533 10.0 -9.4°
Reaches altitude 10° 06:02:03 10° 349° (N) 1,640 8.9 -9.1°
Maximum altitude 06:05:03 27° 291° (WNW) 930 7.4 -8.6°
Drops below altitude 10° 06:08:00 10° 232° (SW) 1,607 8.9 -8.1°
Sets 06:10:13 0° 219° (SW) 2,470 10.0 -7.8°
